[[{"header":{"parameterUnit":"m.s-1","parameterCategory":1,"la1":30.2991,"la2":30.254,"lo1":-89.0895,"lo2":-89.0444,"dy":0.0017,"dx":0.0017,"nx":28,"ny":28,"refTime":"2025-07-24T09:00:00:Z","depth":0,"parameterNumber":2,"parameterNumberName":"U-component_of_WINDS"},"data":[0,0,0,0,0,0,0,0,0,0,0,0,0,0,0,0,0,0,0,0,0,0,0,0,0,0,0,0,0,0,0,0,0,0,0,0,0,0,0,0,0,0,0,0,0,0,0,0,0,0,0,0,0,0,0,0,0,0,-0.9326,-0.9326,0,-0.9332,-0.9332,-0.9332,-0.9333,-0.9332,-0.9332,-0.9332,-0.9338,-0.9338,-0.9338,0,0,0,0,0,0,0,0,0,0,0,0,0,-0.9314,-0.9315,-0.9326,-0.9326,-0.9326,-0.9332,-0.9332,-0.9332,-0.9333,-0.9332,-0.9332,-0.9332,-0.9338,-0.9338,-0.9338,0,0,0,0,0,0,0,0,0,0,0,0,0,-0.932,-0.9315,-0.9326,-0.9327,-0.9327,-0.9332,-0.9332,-0.9332,-0.9333,-0.9332,-0.9332,-0.9332,-0.9338,-0.9338,-0.9338,-0.9342,0,0,-0.9339,-0.9339,0,0,0,0,0,0,0,0,-0.932,-0.932,-0.9327,-0.9327,-0.9327,-0.9331,-0.933,-0.9336,-0.9333,-0.9331,-0.9332,-0.9332,-0.9336,-0.9336,-0.9338,-0.9342,-0.9343,-0.9339,-0.9339,-0.934,-0.934,0,0,0,0,0,0,0,-0.9319,-0.932,-0.9328,-0.9327,-0.9327,-0.9327,-0.9328,-0.9331,-0.9334,-0.9331,-0.9331,-0.9331,-0.9336,-0.9337,-0.9338,-0.9343,-0.9339,-0.934,-0.934,-0.934,-0.9352,-0.9352,0,0,0,0,0,0,-0.9319,-0.932,-0.9328,-0.9329,-0.9323,-0.9327,-0.9328,-0.933,-0.9334,-0.9334,-0.9332,-0.9331,-0.9337,-0.9337,-0.9338,-0.9343,-0.934,-0.934,-0.934,-0.9352,-0.9352,-0.9352,0,0,0,0,0,0,-0.9318,-0.9319,-0.9328,-0.9324,-0.9325,-0.9328,-0.933,-0.933,-0.9332,-0.9334,-0.9335,-0.9333,-0.9337,-0.9337,-0.9341,-0.9343,-0.934,-0.934,-0.9352,-0.9352,-0.9352,-0.9354,0,0,0,0,0,0,-0.9318,-0.9319,-0.9321,-0.9324,-0.9325,-0.9331,-0.933,-0.9331,-0.9332,-0.9332,-0.9335,-0.9336,-0.9337,-0.9341,-0.9342,-0.9344,-0.9341,-0.9351,-0.9352,-0.9352,-0.9353,-0.9354,-0.9354,0,0,0,0,0,-0.9318,-0.9321,-0.9321,-0.9322,-0.9327,-0.9332,-0.9332,-0.9334,-0.9333,-0.9334,-0.9336,-0.9336,-0.9343,-0.9341,-0.9342,-0.9344,-0.9351,-0.9352,-0.9352,-0.9353,-0.9354,-0.9354,0,0,0,0,0,0,-0.9317,-0.9321,-0.9321,-0.9326,-0.9328,-0.9332,-0.9334,-0.9334,-0.9337,-0.9336,-0.9338,-0.9338,-0.9342,-0.9344,-0.9342,-0.9349,-0.9347,-0.9348,-0.9348,-0.9348,-0.9349,-0.9348,-0.9341,0,0,0,0,0,-0.9318,-0.9321,-0.9324,-0.9327,-0.9329,-0.9331,-0.9333,-0.9334,-0.9336,-0.9337,-0.9339,-0.9342,-0.9345,-0.9346,-0.9349,-0.9354,-0.9354,-0.9356,-0.9356,-0.9356,-0.9357,-0.936,-0.936,-0.9353,-0.9353,-0.9353,0,0,-0.9318,-0.9321,-0.9323,-0.9327,-0.933,-0.9333,-0.9332,-0.9335,-0.9338,-0.9338,-0.9342,-0.9343,-0.9346,-0.935,-0.9352,-0.9352,-0.9359,-0.9357,-0.9357,-0.9357,-0.936,-0.9361,-0.9361,-0.9353,-0.9353,-0.9353,0,0,-0.9322,-0.9324,-0.9327,-0.933,-0.9333,-0.9335,-0.9335,-0.9339,-0.934,-0.9344,-0.9344,-0.9347,-0.9352,-0.9354,-0.9356,-0.9361,-0.9361,-0.9362,-0.9364,-0.9367,-0.9367,-0.9368,-0.937,-0.9371,-0.9362,-0.9362,-0.9362,0,-0.9322,-0.9327,-0.9329,-0.9332,-0.9335,-0.9335,-0.9339,-0.9341,-0.9345,-0.9347,-0.9346,-0.9352,-0.9354,-0.9359,-0.9361,-0.9362,-0.9363,-0.9361,-0.9367,-0.9368,-0.9368,-0.937,-0.9371,-0.9362,-0.9362,-0.9362,-0.9362,0,-0.9328,-0.9331,-0.9334,-0.9338,-0.9341,-0.9344,-0.9346,-0.9349,-0.9349,-0.9351,-0.9356,-0.9358,-0.9362,-0.9363,-0.9363,-0.9368,-0.9368,-0.9367,-0.9365,-0.9369,-0.9371,-0.9372,-0.9362,-0.9362,-0.9362,-0.9362,0,0,-0.9331,-0.9337,-0.9337,-0.934,-0.9344,-0.9347,-0.935,-0.9354,-0.9356,-0.9359,-0.9363,-0.9367,-0.9367,-0.9369,-0.9369,-0.9372,-0.9376,-0.9371,-0.9371,-0.9372,-0.9382,-0.9383,-0.9384,-0.9376,-0.9376,-0.9377,-0.9382,0,-0.9335,-0.9342,-0.9344,-0.9349,-0.9353,-0.9354,-0.9357,-0.936,-0.9362,-0.9365,-0.9367,-0.937,-0.9369,-0.9371,-0.9373,-0.9375,-0.9378,-0.9375,-0.938,-0.938,-0.9379,-0.9385,-0.9386,-0.9391,-0.9383,-0.9383,-0.9383,0,-0.934,-0.9344,-0.935,-0.9355,-0.9356,-0.9359,-0.9363,-0.9366,-0.937,-0.9371,-0.9374,-0.9374,-0.9378,-0.9376,-0.9382,-0.938,-0.9382,-0.9383,-0.9383,-0.9384,-0.9382,-0.9386,-0.9393,-0.9394,-0.9385,-0.9384,-0.9384,0,-0.9342,-0.9348,-0.9353,-0.9355,-0.936,-0.9363,-0.9365,-0.9368,-0.9371,-0.9374,-0.9376,-0.938,-0.9382,-0.9385,-0.9386,-0.9385,-0.9392,-0.939,-0.9393,-0.9393,-0.9395,-0.9395,-0.9402,-0.9396,-0.9396,-0.9396,-0.9396,0,-0.9346,-0.935,-0.9354,-0.9357,-0.9362,-0.9364,-0.9369,-0.9371,-0.9374,-0.9378,-0.9379,-0.9382,-0.9384,-0.9387,-0.9389,-0.9394,-0.9394,-0.9396,-0.9396,-0.9396,-0.9396,-0.9397,-0.9397,-0.9396,-0.9396,-0.9396,-0.9396,0,-0.9349,-0.9352,-0.9358,-0.9362,-0.9364,-0.9367,-0.9371,-0.9374,-0.9376,-0.938,-0.9382,-0.9385,-0.9389,-0.9391,-0.9396,-0.9397,-0.9403,-0.9403,-0.9402,-0.9402,-0.9405,-0.9405,-0.9414,-0.9416,-0.9408,-0.9408,-0.9408,0,-0.9352,-0.9355,-0.9361,-0.9363,-0.9366,-0.937,-0.9373,-0.9375,-0.9378,-0.9383,-0.9385,-0.939,-0.9393,-0.94,-0.9403,-0.9407,-0.9407,-0.941,-0.9408,-0.9408,-0.9408,-0.9408,-0.9408,-0.9411,-0.9411,-0.9411,-0.9411,0,-0.9357,-0.9358,-0.9362,-0.9367,-0.9371,-0.9374,-0.9378,-0.938,-0.9383,-0.9387,-0.9391,-0.9394,-0.94,-0.9405,-0.9409,-0.9411,-0.9412,-0.9412,-0.9413,-0.9413,-0.9412,-0.9413,-0.9404,-0.9411,-0.9411,-0.9411,-0.9411,-0.9411,-0.936,-0.9363,-0.9368,-0.9372,-0.9376,-0.9379,-0.9383,-0.9386,-0.939,-0.9395,-0.9396,-0.9401,-0.9405,-0.9411,-0.9414,-0.9418,-0.9417,-0.9418,-0.9419,-0.9419,-0.942,-0.9411,-0.9419,-0.9418,-0.9418,-0.9418,-0.9418,0,-0.9365,-0.9368,-0.9373,-0.9378,-0.9382,-0.9383,-0.9387,-0.939,-0.9395,-0.9399,-0.9403,-0.9409,-0.9413,-0.9417,-0.9421,-0.9424,-0.9424,-0.9425,-0.9425,-0.9426,-0.942,-0.9419,-0.9425,-0.9425,-0.9425,-0.9425,-0.9425,-0.9425,-0.9368,-0.9374,-0.9376,-0.9384,-0.9387,-0.9392,-0.9395,-0.9398,-0.9402,-0.9408,-0.9412,-0.9415,-0.9418,-0.9424,-0.9428,-0.9429,-0.9431,-0.9432,-0.9433,-0.9427,-0.9426,-0.9426,-0.9425,-0.9432,-0.9432,-0.9438,-0.9438,-0.9438]},{"header":{"parameterUnit":"m.s-1","parameterCategory":1,"la1":30.2991,"la2":30.254,"lo1":-89.0895,"lo2":-89.0444,"dy":0.0017,"dx":0.0017,"nx":28,"ny":28,"refTime":"2025-07-24T09:00:00:Z","depth":0,"parameterNumber":3,"parameterNumberName":"V-component_of_WINDS"},"data":[0,0,0,0,0,0,0,0,0,0,0,0,0,0,0,0,0,0,0,0,0,0,0,0,0,0,0,0,0,0,0,0,0,0,0,0,0,0,0,0,0,0,0,0,0,0,0,0,0,0,0,0,0,0,0,0,0,0,4.1766,4.1767,0,4.1872,4.1873,4.1874,4.1821,4.1818,4.1815,4.1813,4.1915,4.192,4.1925,0,0,0,0,0,0,0,0,0,0,0,0,0,4.1509,4.1514,4.1766,4.1767,4.1769,4.1872,4.1873,4.1875,4.1821,4.1818,4.1815,4.1812,4.1913,4.1919,4.1926,0,0,0,0,0,0,0,0,0,0,0,0,0,4.1618,4.1516,4.1766,4.1755,4.1755,4.1871,4.1873,4.1875,4.1822,4.1818,4.1814,4.181,4.1911,4.1919,4.1927,4.2058,0,0,4.1951,4.1954,0,0,0,0,0,0,0,0,4.1612,4.1628,4.1755,4.1756,4.1756,4.1829,4.182,4.1936,4.1823,4.1796,4.1813,4.1808,4.1889,4.1899,4.1928,4.2063,4.2068,4.1952,4.1956,4.196,4.1962,0,0,0,0,0,0,0,4.1605,4.1623,4.1808,4.1757,4.1757,4.1742,4.1753,4.1842,4.1864,4.1798,4.1795,4.1808,4.1889,4.192,4.193,4.2069,4.1951,4.1958,4.1963,4.1966,4.2313,4.2318,0,0,0,0,0,0,4.1599,4.1617,4.1804,4.1811,4.1673,4.175,4.1762,4.181,4.1863,4.1868,4.1812,4.1806,4.1909,4.192,4.1933,4.2088,4.196,4.1967,4.1972,4.2309,4.2314,4.2319,0,0,0,0,0,0,4.1593,4.1616,4.18,4.1713,4.1735,4.1759,4.1813,4.1814,4.1845,4.1874,4.1877,4.184,4.1906,4.1922,4.2027,4.209,4.1971,4.1978,4.2304,4.2311,4.2317,4.24,0,0,0,0,0,0,4.1586,4.1614,4.1667,4.1715,4.174,4.1895,4.1817,4.1819,4.186,4.1853,4.1901,4.1905,4.1904,4.2016,4.2035,4.2099,4.1984,4.2298,4.2307,4.2315,4.2392,4.2409,4.2423,0,0,0,0,0,4.1577,4.1686,4.167,4.1693,4.1807,4.1899,4.1913,4.1911,4.1865,4.1916,4.1934,4.1904,4.2081,4.2027,4.2048,4.2116,4.2294,4.2304,4.2314,4.2385,4.2405,4.2423,0,0,0,0,0,0,4.1643,4.1692,4.1675,4.1802,4.1847,4.189,4.1955,4.1934,4.1991,4.1982,4.1975,4.1986,4.2095,4.2116,4.2055,4.2244,4.218,4.2195,4.2226,4.2246,4.2262,4.2253,4.1991,0,0,0,0,0,4.1673,4.1746,4.1784,4.1892,4.1916,4.1932,4.1972,4.1966,4.2012,4.203,4.2055,4.2098,4.2163,4.2206,4.2268,4.2395,4.2402,4.2452,4.2467,4.248,4.2492,4.2557,4.2579,4.2352,4.2352,4.2352,0,0,4.1734,4.177,4.1816,4.1906,4.1941,4.2013,4.1948,4.2029,4.2082,4.2041,4.2142,4.2162,4.2209,4.2325,4.2378,4.2346,4.2557,4.2493,4.2503,4.2508,4.257,4.2591,4.261,4.2359,4.2358,4.2357,0,0,4.1883,4.1919,4.2012,4.2047,4.21,4.2109,4.2131,4.2177,4.2189,4.2291,4.2261,4.2323,4.2436,4.247,4.2502,4.2661,4.2633,4.2681,4.2763,4.2826,4.2844,4.286,4.2913,4.2933,4.2693,4.2694,4.2694,0,4.1951,4.2063,4.2061,4.2144,4.2183,4.2151,4.2243,4.2277,4.2346,4.2372,4.2337,4.2476,4.2506,4.2628,4.2666,4.2694,4.2717,4.2675,4.2842,4.2858,4.2873,4.2923,4.2944,4.2699,4.2698,4.2698,4.2697,0,4.2143,4.2221,4.2289,4.2358,4.2405,4.2492,4.25,4.2547,4.2537,4.2549,4.265,4.2685,4.2752,4.278,4.2772,4.29,4.2879,4.2843,4.2778,4.2899,4.2947,4.2967,4.2706,4.2705,4.2703,4.2702,0,0,4.2336,4.2403,4.2427,4.2457,4.2512,4.257,4.2654,4.2721,4.2759,4.2808,4.2875,4.2971,4.2938,4.2974,4.2968,4.3024,4.3144,4.2981,4.2982,4.3008,4.3284,4.3308,4.3331,4.3127,4.3131,4.3134,4.3279,0,4.2486,4.2636,4.2635,4.2772,4.2841,4.281,4.2883,4.2922,4.2936,4.2994,4.3007,4.3074,4.3027,4.3048,4.3103,4.3118,4.3199,4.3108,4.3186,4.3189,4.3173,4.3357,4.3384,4.3519,4.3297,4.3301,4.3303,0,4.2682,4.2737,4.2881,4.2923,4.2952,4.3018,4.3077,4.3135,4.3177,4.3183,4.3223,4.3207,4.3289,4.3223,4.3333,4.3272,4.3303,4.3316,4.3321,4.3326,4.3252,4.3364,4.3562,4.3582,4.3333,4.333,4.3328,0,4.2804,4.2915,4.3015,4.3041,4.3094,4.314,4.3163,4.3202,4.3241,4.3293,4.3317,4.3377,4.3409,4.3454,4.3454,4.3406,4.3564,4.3499,4.3568,4.3568,4.3601,4.3598,4.3804,4.3626,4.3625,4.3625,4.3625,0,4.2971,4.3059,4.307,4.3131,4.3227,4.3225,4.332,4.3339,4.3373,4.3435,4.3412,4.347,4.3467,4.3525,4.3525,4.3614,4.363,4.3634,4.3632,4.3635,4.3634,4.3654,4.3643,4.363,4.3629,4.3628,4.3627,0,4.3124,4.3135,4.3241,4.3282,4.3294,4.3363,4.3396,4.3452,4.3463,4.3541,4.3559,4.3575,4.3641,4.3646,4.3723,4.3723,4.383,4.382,4.3816,4.3813,4.3881,4.3873,4.4105,4.4134,4.3939,4.3941,4.3942,0,4.3228,4.3295,4.3343,4.3383,4.341,4.3475,4.3515,4.3514,4.3556,4.3609,4.3657,4.3722,4.3773,4.388,4.3897,4.3954,4.3943,4.4021,4.3952,4.3951,4.3941,4.3936,4.3941,4.4033,4.4035,4.4037,4.4039,0,4.3411,4.3413,4.3472,4.3533,4.3581,4.3629,4.3673,4.3706,4.371,4.3758,4.3826,4.3866,4.3944,4.4007,4.4063,4.4084,4.4061,4.406,4.4079,4.4081,4.4075,4.4076,4.385,4.4055,4.4053,4.4052,4.4051,4.405,4.3541,4.3598,4.364,4.3706,4.3739,4.378,4.3834,4.3851,4.3909,4.3974,4.3969,4.4044,4.4081,4.4154,4.418,4.4236,4.4209,4.4237,4.4243,4.4249,4.4255,4.4068,4.4246,4.4246,4.4245,4.4245,4.4245,0,4.372,4.3745,4.3806,4.3868,4.3919,4.3896,4.3942,4.3986,4.4052,4.4091,4.4142,4.4218,4.4279,4.43,4.4358,4.4399,4.4389,4.4414,4.4409,4.4414,4.4277,4.4254,4.442,4.442,4.442,4.442,4.442,4.442,4.3819,4.3913,4.392,4.4028,4.4052,4.4127,4.4155,4.4192,4.4222,4.4309,4.436,4.4374,4.4404,4.4464,4.4517,4.4521,4.4542,4.4571,4.457,4.4442,4.4424,4.4407,4.4385,4.4576,4.4576,4.4702,4.4703,4.4704]}]]